EW1145 Weather Reports


time (UTC)temp
F
wind
direction
speed
knots
gust
knots
rain 1hr
in
rain 24hr
in
rain mn
in
humidity
%
barometer
mb
20260503224540 90 84 0.0 2.6 0.00 0.00 0.00 20 1007.6
20260503223036 89 190 0.0 2.6 0.00 0.00 0.00 25 1007.9
20260503221534 89 83 0.0 4.3 0.00 0.00 0.00 26 1008.1
20260503220032 89 109 0.0 2.6 0.00 0.00 0.00 25 1008.4
20260503214538 88 75 0.0 4.3 0.00 0.00 0.00 25 1008.5
20260503213026 88 21 0.0 2.6 0.00 0.00 0.00 27 1008.7
20260503211522 87 28 0.0 3.5 0.00 0.00 0.00 28 1008.8
20260503210021 87 115 0.0 4.3 0.00 0.00 0.00 29 1009.0
20260503204518 86 32 0.9 3.5 0.00 0.00 0.00 30 1009.1
20260503203017 86 9 0.0 4.3 0.00 0.00 0.00 29 1009.4
20260503201513 85 111 0.0 5.2 0.00 0.00 0.00 29 1009.6
20260503200013 85 86 0.0 6.1 0.00 0.00 0.00 32 1009.8
20260503194509 83 80 0.0 5.2 0.00 0.00 0.00 34 1010.0
20260503193005 83 10 0.9 4.3 0.00 0.00 0.00 36 1010.1
20260503191501 82 105 0.0 3.5 0.00 0.00 0.00 40 1010.2
20260503190059 81 260 0.0 3.5 0.00 0.00 0.00 42 1010.3
20260503184600 80 163 0.0 0.9 0.00 0.00 0.00 46 1010.4
20260503183052 79 218 0.9 2.6 0.00 0.00 0.00 52 1010.6
20260503181552 79 81 0.0 0.0 0.00 0.00 0.00 54 1010.8
20260503180056 78 81 0.0 0.0 0.00 0.00 0.00 55 1010.9
20260503174551 77 89 0.0 0.0 0.00 0.00 0.00 57 1010.9
20260503173040 75 89 0.0 0.0 0.00 0.00 0.00 61 1011.0
20260503171539 75 79 0.0 0.0 0.00 0.00 0.00 62 1011.1
20260503081541 56 194 0.0 0.0 0.00 0.00 0.00 90 1011.9
20260503071529 58 194 0.0 0.0 0.00 0.00 0.00 87 1012.1
20260503054529 62 336 0.0 0.0 0.00 0.00 0.00 81 1011.9
20260503053029 62 336 0.0 0.0 0.00 0.00 0.00 80 1012.0
20260503051521 61 336 0.0 0.0 0.00 0.00 0.00 82 1012.0
20260503050021 61 336 0.0 0.0 0.00 0.00 0.00 82 1012.2
20260503044527 61 336 0.0 0.0 0.00 0.00 0.00 81 1012.4
20260503043021 62 336 0.0 0.0 0.00 0.00 0.00 80 1012.3
20260503041520 62 336 0.0 0.0 0.00 0.00 0.00 79 1012.3
20260503040019 63 337 0.0 0.0 0.00 0.00 0.00 77 1012.1
20260503034519 63 337 0.0 3.5 0.00 0.00 0.00 76 1011.9
20260503033018 63 195 0.0 0.0 0.00 0.00 0.00 76 1011.8
20260503031518 64 195 0.0 1.7 0.00 0.00 0.00 75 1011.9
20260503030017 65 192 0.0 2.6 0.00 0.00 0.00 74 1012.0
20260503024518 65 221 0.0 5.2 0.00 0.00 0.00 73 1011.9
20260503023016 66 210 0.0 3.5 0.00 0.00 0.00 73 1011.7
20260503021522 68 201 0.0 5.2 0.00 0.00 0.00 70 1011.2
20260503020016 69 14 0.0 0.0 0.00 0.00 0.00 67 1010.9
20260503014515 70 14 0.0 1.7 0.00 0.00 0.00 65 1010.8
20260503013029 72 14 0.0 0.0 0.00 0.00 0.00 62 1010.8
20260503011514 74 14 0.0 0.9 0.00 0.00 0.00 58 1010.7
20260503010014 74 290 0.0 3.5 0.00 0.00 0.00 53 1010.6
20260503004512 74 281 0.0 0.0 0.00 0.00 0.00 56 1010.6
20260503003011 74 281 0.0 0.0 0.00 0.00 0.00 54 1010.7
20260503001509 73 275 1.7 5.2 0.00 0.00 0.00 52 1010.7
20260503000006 73 236 0.0 0.0 0.00 0.00 0.00 58 1010.8
20260502234504 73 236 0.0 1.7 0.00 0.00 0.00 57 1011.0
20260502233100 72 80 0.0 0.0 0.00 0.00 0.00 62 1011.2
20260502231606 72 80 0.0 0.0 0.00 0.00 0.00 58 1011.4
20260502230057 71 82 0.0 0.0 0.00 0.00 0.00 59 1011.7